Wind_Speed
3 3 4 4 4 4 4 4 4 4 4 4 4 4 4 4 4 4 4 4 5 5 5 5 5 5 5 5 5 5 5 5 6 6 7 8 8 9 9 10 10 11 11
3 2 3 4 3 3 4 4 4 5 6 5 5 5 6 6 6 7 6 6 6 6 6 6 6 5 5 6 6 6 6 6 7 7 8 9 9 10 10 11 11 11 11
3 2 3 3 3 4 4 4 5 5 5 6 6 6 7 7 8 8 8 8 7 7 7 7 7 7 7 7 7 7 7 7 8 8 8 9 9 10 10 10 10 11 11
2 1 1 2 2 3 3 3 3 4 5 6 6 6 6 7 8 8 9 9 9 8 8 7 8 8 8 8 8 8 8 8 9 9 9 10 10 11 10 10 11 11 11
2 1 1 1 2 2 3 3 4 5 6 6 6 6 7 6 7 8 8 9 9 9 9 9 9 9 9 9 9 8 8 9 9 10 10 10 10 10 10 11 11 11 12
2 2 1 1 2 2 2 3 4 5 5 5 6 6 6 7 8 9 10 10 10 10 10 10 11 10 10 10 10 10 10 10 10 10 11 11 11 11 11 11 11 12 13
2 2 2 2 2 2 2 3 4 5 5 5 5 6 6 8 9 9 10 10 10 10 10 10 11 10 10 10 11 11 11 12 12 12 12 12 12 11 12 12 12 13 13
3 3 3 4 3 3 3 3 4 5 5 6 6 6 7 8 9 10 10 11 11 11 11 10 10 10 11 11 12 12 13 14 13 13 13 13 13 13 13 13 13 13 14
4 4 4 4 3 3 3 4 6 6 6 7 7 7 7 8 9 10 10 11 11 12 11 11 10 11 12 13 13 13 14 14 13 13 13 13 14 13 13 13 14 14 15
4 4 4 4 4 4 4 5 6 7 7 7 8 8 8 9 10 11 11 12 11 11 11 11 11 11 12 13 13 13 14 14 15 15 15 15 15 14 14 14 14 15 15
5 4 5 5 5 6 7 7 7 7 8 7 8 8 9 10 11 11 11 11 10 10 10 10 11 12 13 14 14 14 14 15 15 16 16 16 16 15 15 16 16 16 16
5 5 5 6 7 7 7 8 8 8 7 8 8 9 9 9 10 10 10 10 9 9 10 11 12 13 13 14 15 14 14 15 16 16 17 17 17 16 16 17 17 17 17
6 6 7 7 8 8 8 8 8 8 8 8 9 9 9 10 10 10 11 10 10 10 11 11 12 13 14 14 15 15 16 16 17 18 18 18 18 17 18 18 18 18 18
6 7 8 9 9 9 9 9 9 9 9 9 9 9 10 10 11 11 11 11 11 11 12 13 14 14 14 15 16 17 17 17 18 18 18 17 18 18 18 19 19 19 19
8 8 9 10 11 11 11 12 10 11 11 10 10 9 10 10 10 11 11 11 11 12 12 14 15 16 16 16 16 17 18 18 18 17 17 17 18 19 19 19 20 20 20
10 10 11 11 11 12 13 12 12 12 12 11 11 11 11 11 11 11 12 12 13 14 14 15 16 16 17 17 18 18 18 17 18 17 17 18 19 19 19 19 20 20 21
12 12 12 13 13 13 13 12 13 13 12 12 11 11 11 11 12 12 12 13 14 15 15 16 17 17 18 18 18 18 18 18 18 19 19 19 19 19 19 20 20 20 20
14 13 13 13 13 13 12 12 12 13 13 12 12 12 12 12 13 13 14 15 15 16 16 16 17 18 18 18 19 19 19 20 20 20 20 20 19 20 20 20 20 20 20
15 14 14 13 13 13 13 14 13 13 13 13 13 13 13 14 14 15 16 16 16 16 17 17 17 17 18 19 20 20 20 21 21 21 21 21 21 21 21 20 20 20 20
16 15 14 14 14 14 14 15 14 14 14 14 14 15 15 15 15 16 16 17 17 17 18 17 17 18 19 20 20 21 21 21 22 22 21 21 22 22 21 21 21 21 21
17 16 15 15 15 16 16 16 16 16 16 16 16 17 17 18 18 18 18 18 18 19 19 18 19 19 20 21 22 22 22 22 22 22 23 22 22 22 21 22 22 22 22
17 17 17 17 18 18 18 18 18 18 18 18 18 19 19 20 20 20 20 20 21 20 20 20 21 21 22 22 23 22 23 23 23 23 24 24 23 23 23 23 23 23 23
19 19 19 19 19 20 20 21 20 20 20 20 20 20 20 21 22 22 22 23 23 22 22 23 23 23 24 24 24 23 24 24 24 24 24 24 24 24 25 25 25 25 25
20 20 20 20 21 22 22 22 21 21 21 21 21 21 22 23 23 23 23 23 24 25 25 25 25 25 25 25 25 25 25 25 25 25 25 25 26 26 26 26 26 26 26
22 23 23 23 23 23 23 23 23 22 23 23 23 24 24 25 25 25 24 25 25 26 26 26 26 26 26 26 26 26 27 27 27 26 26 26 27 27 27 27 27 27 26
25 25 25 25 25 25 24 24 24 24 24 24 24 25 26 26 27 26 26 26 26 26 27 27 27 28 27 27 27 28 29 29 28 28 28 28 28 28 28 28 27 27 27
Wind_Direction
120 141 158 170 176 196 215 231 241 248 258 255 251 251 260 259 260 260 254 255 258 263 266 264 273 276 274 268 268 272 278 277 276 279 276 273 274 274 274 275 271 267 265
110 127 165 179 201 216 223 231 240 253 258 261 260 262 259 257 258 261 261 258 260 263 268 271 276 278 274 268 264 267 273 273 275 280 281 280 279 276 277 277 274 269 266
105 127 149 176 203 215 222 230 233 242 251 256 261 262 263 267 263 261 259 261 260 263 270 274 276 277 273 273 270 269 272 273 274 279 285 287 287 285 281 280 276 270 267
77 126 143 190 200 220 237 244 244 252 262 260 261 265 268 269 268 266 261 261 260 262 268 273 275 275 275 277 278 272 273 275 277 280 283 286 288 283 279 278 275 273 270
62 57 5 238 221 237 261 266 269 268 269 267 267 268 270 275 273 269 271 264 266 266 264 267 273 273 274 277 277 274 274 278 279 279 282 284 288 286 280 278 276 275 274
28 27 356 307 278 275 280 284 277 279 275 267 271 277 273 277 280 272 273 272 273 273 268 266 268 270 270 274 275 277 275 277 279 279 281 282 286 283 281 281 279 275 273
24 9 360 338 324 317 306 298 297 296 284 274 273 277 277 279 284 280 278 276 276 278 279 276 275 272 273 276 275 279 280 279 279 280 279 278 283 279 277 279 281 277 273
15 359 348 339 337 318 302 299 300 297 294 287 287 279 276 276 285 284 279 276 277 278 278 278 277 276 277 275 275 278 279 281 279 279 278 277 279 276 276 280 280 279 274
352 351 348 342 335 332 316 300 299 298 298 294 295 292 281 282 286 284 281 277 274 274 271 272 273 280 279 276 275 277 282 283 281 281 279 278 280 277 274 278 279 277 274
3 356 354 343 332 326 317 307 301 298 300 298 298 298 290 285 284 282 280 281 277 272 268 270 275 281 282 280 280 282 283 281 280 281 282 281 282 277 273 277 280 278 273
360 350 350 346 338 327 318 310 303 299 298 295 298 302 299 291 287 288 285 281 280 276 273 274 281 281 281 281 281 284 282 282 281 281 281 282 282 278 276 279 280 281 277
346 334 338 338 335 330 322 314 306 301 296 292 294 299 302 296 295 294 294 290 286 285 287 284 288 286 283 285 286 282 282 284 281 281 281 281 281 279 278 280 281 280 277
342 334 328 330 329 327 324 316 308 301 295 290 292 296 299 298 295 295 295 291 290 291 293 293 292 290 286 287 289 287 288 287 282 281 280 281 281 280 279 281 280 279 277
332 330 325 323 322 323 325 323 317 310 304 301 298 297 296 296 296 297 294 291 293 292 295 296 295 295 292 291 290 289 291 292 287 282 279 281 283 282 281 281 281 278 277
320 321 319 317 317 318 321 321 318 318 314 309 304 300 298 297 298 299 293 290 292 293 295 295 293 293 295 295 294 293 293 291 290 287 285 284 283 282 280 281 281 279 277
313 315 316 315 314 313 315 317 317 315 311 304 302 301 299 299 296 296 290 289 291 291 293 294 292 291 294 295 296 297 295 292 292 290 288 286 285 285 281 282 283 280 278
307 308 308 308 308 309 308 309 311 311 313 309 301 299 298 298 298 293 290 292 292 292 294 294 292 293 293 295 296 295 294 295 296 293 290 288 288 288 285 283 281 281 280
303 301 301 303 306 307 303 305 308 310 310 310 306 301 298 297 297 296 295 296 297 295 294 295 294 295 294 294 295 296 296 295 292 293 290 289 289 288 287 286 285 283 281
299 300 299 301 302 302 303 304 302 304 306 304 303 301 301 301 298 300 300 300 301 301 300 297 297 296 296 296 295 294 294 294 292 292 291 290 288 288 287 288 288 285 283
294 294 294 297 299 299 301 301 298 299 301 301 300 301 303 303 303 303 303 303 302 303 301 299 299 299 298 297 295 293 293 294 293 292 292 292 292 289 288 290 289 287 284
290 291 291 293 293 294 296 297 296 296 297 297 298 299 300 301 300 301 302 301 300 300 299 298 298 298 298 297 296 295 294 295 293 291 289 291 291 291 289 289 287 285 283
290 289 289 291 291 291 293 294 293 294 293 293 296 297 298 298 297 298 300 300 297 297 296 296 296 296 297 296 296 296 296 295 293 291 289 289 289 288 287 287 285 284 283
285 286 286 288 290 290 291 292 290 291 291 290 291 293 296 297 297 298 299 299 298 297 296 296 296 295 295 294 294 294 295 295 293 290 289 288 287 286 285 285 285 283 283
284 286 287 287 288 288 289 290 288 288 290 291 290 291 293 294 295 295 297 297 297 296 297 297 296 296 295 294 292 291 292 293 292 291 289 288 288 286 285 284 285 283 282
283 284 284 285 285 286 288 289 288 286 289 290 290 291 292 293 294 294 294 294 295 295 295 295 295 296 295 293 292 291 291 291 291 289 288 288 287 286 284 283 282 282 281
282 282 284 285 286 286 287 289 288 286 287 288 288 289 292 293 294 294 293 293 293 293 293 293 294 294 293 293 292 291 290 290 289 287 287 287 287 285 283 282 281 280 280
Height
5891 5891 5892 5892 5892 5893 5893 5893 5894 5894 5894 5893 5893 5893 5893 5893 5892 5892 5892 5891 5891 5891 5890 5889 5888 5888 5887 5887 5886 5885 5885 5884 5883 5883 5882 5881 5881 5880 5880 5879 5878 5878 5877
5892 5891 5891 5892 5892 5892 5892 5892 5893 5893 5893 5892 5892 5892 5892 5892 5891 5891 5890 5890 5890 5889 5889 5888 5887 5887 5886 5885 5884 5884 5883 5882 5882 5881 5880 5880 5879 5878 5877 5876 5876 5875 5874
5892 5892 5891 5891 5891 5891 5891 5891 5891 5891 5891 5891 5891 5891 5891 5890 5889 5889 5888 5888 5888 5888 5887 5886 5886 5885 5884 5883 5882 5882 5881 5880 5880 5879 5878 5877 5876 5875 5874 5873 5873 5872 5871
5892 5892 5891 5891 5891 5891 5891 5891 5891 5890 5890 5890 5890 5889 5889 5888 5887 5887 5886 5886 5886 5885 5885 5884 5884 5883 5882 5881 5880 5879 5879 5878 5877 5877 5876 5875 5874 5873 5872 5871 5870 5869 5868
5891 5891 5891 5890 5890 5890 5889 5889 5889 5889 5889 5888 5888 5888 5887 5886 5886 5885 5884 5884 5883 5883 5882 5882 5881 5881 5880 5879 5878 5877 5876 5876 5875 5874 5873 5872 5871 5870 5869 5868 5867 5866 5865
5891 5890 5890 5889 5889 5889 5888 5888 5888 5887 5887 5887 5886 5886 5885 5885 5884 5883 5882 5881 5881 5880 5880 5879 5878 5878 5877 5876 5876 5875 5874 5873 5872 5871 5870 5869 5868 5867 5866 5865 5864 5863 5862
5891 5890 5890 5889 5888 5888 5887 5887 5886 5886 5885 5885 5885 5884 5883 5883 5882 5881 5880 5879 5879 5878 5877 5876 5876 5875 5875 5874 5873 5872 5871 5870 5869 5868 5867 5866 5865 5864 5863 5862 5860 5859 5858
5890 5890 5889 5888 5888 5887 5886 5886 5885 5885 5884 5883 5883 5882 5881 5881 5880 5879 5878 5877 5876 5876 5875 5874 5873 5872 5872 5871 5870 5869 5868 5867 5866 5864 5863 5862 5861 5860 5859 5858 5857 5856 5855
5890 5889 5888 5888 5887 5886 5885 5885 5884 5883 5882 5881 5880 5880 5879 5878 5878 5877 5875 5875 5873 5872 5871 5870 5870 5869 5869 5867 5867 5866 5865 5864 5863 5861 5860 5859 5858 5856 5855 5854 5853 5852 5851
5889 5889 5888 5887 5886 5885 5884 5883 5882 5881 5880 5879 5878 5877 5876 5875 5875 5874 5873 5871 5870 5869 5868 5868 5867 5866 5865 5864 5863 5862 5861 5860 5859 5858 5856 5855 5854 5853 5852 5850 5849 5848 5847
5889 5888 5887 5886 5884 5883 5882 5881 5880 5879 5878 5877 5876 5875 5874 5873 5872 5871 5870 5869 5867 5866 5865 5865 5864 5863 5862 5861 5860 5858 5857 5856 5855 5853 5852 5851 5850 5849 5848 5846 5845 5844 5843
5888 5887 5886 5885 5883 5882 5881 5879 5878 5876 5875 5874 5873 5872 5871 5870 5869 5868 5867 5866 5865 5864 5862 5861 5860 5859 5858 5856 5855 5854 5853 5852 5851 5849 5848 5847 5845 5844 5843 5842 5841 5839 5838
5887 5886 5885 5883 5882 5881 5879 5877 5876 5874 5873 5872 5870 5869 5868 5867 5866 5865 5864 5863 5862 5860 5859 5858 5857 5856 5854 5852 5851 5850 5849 5847 5846 5845 5843 5842 5841 5839 5838 5837 5836 5835 5834
5886 5885 5883 5882 5880 5879 5877 5875 5873 5872 5870 5869 5867 5866 5865 5864 5863 5862 5861 5860 5859 5857 5856 5855 5854 5852 5850 5849 5847 5845 5844 5842 5841 5839 5838 5837 5835 5834 5833 5832 5831 5830 5829
5885 5883 5882 5880 5878 5877 5875 5873 5871 5869 5867 5866 5864 5863 5862 5861 5860 5858 5858 5857 5856 5855 5853 5852 5850 5848 5846 5844 5843 5841 5839 5837 5836 5834 5833 5831 5830 5829 5828 5827 5826 5824 5823
5883 5881 5880 5878 5876 5874 5872 5870 5868 5866 5864 5862 5861 5860 5859 5858 5856 5855 5854 5853 5852 5851 5849 5848 5846 5844 5842 5840 5839 5837 5835 5833 5831 5829 5828 5826 5825 5823 5822 5821 5820 5819 5818
5880 5878 5877 5875 5873 5871 5869 5867 5866 5864 5861 5859 5857 5857 5856 5855 5853 5852 5851 5849 5848 5847 5845 5844 5842 5839 5838 5836 5834 5832 5830 5829 5827 5825 5823 5821 5820 5819 5817 5815 5814 5813 5812
5877 5875 5873 5871 5870 5868 5866 5864 5863 5861 5859 5857 5855 5854 5853 5852 5850 5849 5847 5846 5844 5843 5841 5839 5837 5835 5833 5831 5829 5827 5826 5824 5822 5820 5818 5816 5815 5813 5812 5810 5809 5808 5807
5873 5871 5870 5868 5867 5865 5863 5861 5860 5858 5856 5854 5853 5851 5850 5848 5847 5845 5843 5841 5839 5838 5836 5834 5832 5830 5828 5827 5825 5823 5821 5818 5816 5814 5812 5811 5809 5807 5806 5804 5803 5802 5801
5869 5867 5866 5864 5863 5861 5859 5858 5856 5854 5852 5851 5849 5847 5846 5844 5842 5841 5839 5837 5835 5833 5831 5829 5827 5825 5824 5821 5819 5817 5815 5812 5810 5808 5806 5804 5803 5801 5799 5798 5797 5796 5795
5864 5863 5861 5860 5858 5857 5855 5854 5852 5850 5848 5846 5845 5843 5842 5840 5838 5836 5834 5832 5830 5828 5826 5824 5822 5820 5818 5816 5814 5811 5809 5806 5804 5802 5800 5798 5797 5795 5793 5792 5791 5789 5788
5859 5858 5856 5855 5854 5852 5851 5849 5847 5845 5844 5842 5840 5839 5837 5835 5833 5831 5829 5827 5825 5823 5821 5819 5817 5815 5812 5810 5807 5805 5803 5800 5798 5796 5794 5792 5790 5789 5787 5786 5784 5783 5782
5855 5853 5852 5850 5849 5847 5845 5844 5842 5840 5838 5837 5835 5833 5832 5829 5827 5825 5823 5821 5819 5817 5815 5813 5811 5809 5806 5803 5801 5799 5796 5794 5791 5789 5787 5786 5784 5782 5781 5779 5778 5776 5775
5849 5848 5846 5845 5843 5841 5839 5837 5835 5834 5832 5831 5829 5827 5825 5823 5821 5819 5817 5815 5813 5811 5808 5806 5804 5802 5799 5796 5794 5792 5789 5787 5785 5782 5781 5779 5777 5775 5773 5772 5770 5769 5768
5843 5842 5840 5838 5837 5835 5833 5831 5829 5827 5826 5825 5823 5821 5819 5816 5814 5812 5810 5808 5806 5804 5801 5799 5796 5794 5791 5789 5786 5784 5782 5780 5778 5776 5773 5772 5770 5767 5766 5764 5763 5761 5760
5836 5835 5833 5832 5830 5828 5826 5825 5822 5820 5819 5818 5816 5814 5812 5809 5807 5804 5802 5800 5798 5796 5794 5791 5788 5786 5783 5781 5778 5776 5773 5771 5769 5768 5766 5763 5761 5759 5758 5756 5754 5753 5752